Regional Weather Roundup
Issued by NWS

Home | Current Version | Previous Version | Text Only | Print | Product List | Glossary On
Versions: 1 2 3 4 5 6 7 8 9 10 11 12 13 14 15 16 17 18 19 20 21 22 23 24 25 26 27 28 29 30 31 32 33 34 35 36 37 38 39 40 41 42 43 44 45 46 47 48 49 50
000
ASUS43 KLMK 241210
RWRKY
KENTUCKY REGIONAL WEATHER ROUNDUP
NATIONAL WEATHER SERVICE LOUISVILLE KY
800 AM EDT MON JUL 24 2017

NOTE "FAIR" INDICATES FEW OR NO CLOUDS BELOW 12,000 FEET
WITH NO SIGNIFICANT WEATHER AND/OR OBSTRUCTIONS TO VISIBILITY.

KYZ001>023-026-027-061>063-070>075-241300-
WESTERN AND SOUTH CENTRAL KENTUCKY

CITY           SKY/WX    TMP DP  RH WIND       PRES   REMARKS
PADUCAH        CLOUDY    74  70  87 CALM      29.92R
HENDERSON      MOSUNNY   71  70  96 CALM      29.93R
OWENSBORO      PTSUNNY   73  71  93 VRB3      29.93R
HOPKINSVILLE   CLOUDY    73  71  94 SW6       29.94R
BOWLING GREEN  PTSUNNY   73  72  96 SW3       29.95R FOG
GLASGOW        MOSUNNY  N/A N/A N/A CALM      29.95S
$$

KYZ024-025-028>034-038-045-046-053-241300-
NORTH CENTRAL KENTUCKY

CITY           SKY/WX    TMP DP  RH WIND       PRES   REMARKS
LOUISVILLE/SDF PTSUNNY   78  71  79 CALM      29.91R
LOUISVILLE/LOU MOSUNNY   76  73  91 S3        29.92R
FORT KNOX      SUNNY     71  71 100 CALM      29.92R
$$

KYZ035>037-039>044-047>052-055>060-089>105-241300-
NORTHEAST KENTUCKY

CITY           SKY/WX    TMP DP  RH WIND       PRES   REMARKS
LEXINGTON      SUNNY     72  69  90 SW8       29.94R
COVINGTON      MOSUNNY   72  71  97 W7        29.91R
FRANKFORT      SUNNY     73  69  87 CALM      29.92R
$$

KYZ054-064>069-076>088-106>120-241300-
SOUTHEAST KENTUCKY

CITY           SKY/WX    TMP DP  RH WIND       PRES   REMARKS
JACKSON        CLOUDY    70  69  97 CALM      29.97R FOG
LONDON         CLOUDY    69  67  93 CALM      29.98R
SOMERSET       SUNNY     70  70 100 CALM      29.98R
MIDDLESBORO    CLOUDY    69  69 100 CALM      29.99R FOG
MONTICELLO     CLOUDY    69  68  96 MISG      29.99R
$$




USA.gov is the U.S. government's official web portal to all federal, state and local government web resources and services.